Location: St. Louis
(38.6270°N, 90.1994°W)
Time: 13:35:17
(UTC-06:00)

Transit 4A - Pass Details

Date: 03 December 2021
Orbit: 864 x 980 km, 66.8° (Epoch: 16 January)

Event Time Altitude Azimuth Distance (km) Brightness Sun altitude
Rises 20:51:09 0° 257° (WSW) 3,465 11.5 -48.4°
Enters shadow 20:54:21 - 276° (W) 2,588 10.7 -49.0°
Reaches altitude 10° 20:54:32 10° 277° (W) 2,547 - -49.1°
Maximum altitude 20:58:18 17° 317° (NW) 2,104 - -49.8°
Drops below altitude 10° 21:02:09 10° 357° (N) 2,602 - -50.5°
Sets 21:05:41 0° 17° (NNE) 3,572 - -51.2°
